sat.trackr.live / text

‹ back to catalog

CZ-2F R/B

NORAD 69181 · 2026-113B

ROCKET_BODY UNKNOWN UNKNOWN

§ Identity

Operator
Country
PRC
Launch date
2026-05-24
Launch site
JSC
Launch vehicle
Mass (kg)
RCS (m²)

External: N2YO · Heavens-Above · Gunter

§ Orbital elements

Epoch: 2026-05-25T04:16:40.672992Z

Period
89.93 min
Inclination
41.4669°
Eccentricity
0.0110256
Mean motion
16.01258577 rev/d
Perigee alt
197.6 km
Apogee alt
344.2 km
Semi-major
6,649.1 km
B*
2.3752e-4
RAAN
101.7926°
Arg perigee
128.5701°
Mean anomaly
232.5091°
Rev number
9

§ Raw data

CZ-2F R/B1 69181U 26113B   26145.17824853  .00290372  75792-5  23752-3 0  99942 69181  41.4669 101.7926 0110256 128.5701 232.5091 16.01258577    95

JSON: /api/v1/satellites/69181 · /tle

For live sub-satellite position, see the globe view (requires WebGL).

§ Visibility from observer

Set your observer location to see the next 7 days of passes ≥ 10°. The values pass through the URL so the page stays shareable.

No JS? Fill the form by hand. The geolocation button needs JavaScript.